Home > Weather > Middlesbrough > Past weeks

Flag for United Kingdom Past Weather in Middlesbrough, England, United Kingdom — Yesterday and Last 2 Weeks

Now
59 °F

Partly sunny.


Feels Like: 58 °F
Forecast: 50 / 66 °F
Wind: 8 mph from Northeast

Location: Tees-Side

Current Time: Aug 28, 2016 at 9:55:23 AM

Latest Report: Aug 28, 2016 at 9:20 AM


Visibility: N/A

Pressure: 29.86 "Hg

Humidity: 100%

Dew Point: 59 °F

Location of MiddlesbroughLocation

Past Weather in Middlesbrough — Graph

°F

Middlesbrough Temperature Yesterday

Maximum temperature yesterday: 70 °F (at 1:20 PM)
Minimum temperature yesterday: 48 °F (at 5:50 AM)
Average temperature yesterday: 62 °F

High & Low Weather Summary for the Past Weeks

 TemperatureHumidityPressure
High79 °F (Aug 23, 3:20 PM)100% (Aug 17, 6:20 AM)30.33 "Hg (Aug 17, 6:20 AM)
Low45 °F (Aug 17, 5:50 AM)50% (Aug 15, 3:20 PM)29.39 "Hg (Aug 20, 3:20 PM)
Average64 °F76%30.00 "Hg
* Reported Aug 13 8:20 AM — Aug 28 8:20 AM, Middlesbrough, Weather by CustomWeather, © 2016

Note: Actual official high and low records may vary slightly from our data, if they occured in-between our weather recording intervals... More about our weather records

Advertising

Middlesbrough Weather History for the Previous 24 Hours

Scroll right to see more
 ConditionsComfort  
Time TempWeatherWind HumidityBarometerVisibility
8:20 AM
Sun, Aug 28
59 °FPartly sunny.7 mph94%29.83 "HgN/A
7:50 AM57 °FPartly sunny.10 mph100%29.83 "Hg5 mi
7:20 AM57 °FFog.10 mph100%29.83 "Hg2 mi
6:50 AM57 °FLight rain. Passing clouds.7 mph94%29.86 "Hg2 mi
6:20 AM57 °FPassing clouds.6 mph100%29.86 "Hg1 mi
5:50 AM57 °FLight rain. Passing clouds.9 mph100%29.83 "Hg2 mi
9:50 PM
Sat, Aug 27
59 °FPassing clouds.5 mph88%29.98 "HgN/A
9:20 PM57 °FPassing clouds.6 mph94%30.01 "HgN/A
8:50 PM59 °FPassing clouds.6 mph88%30.01 "HgN/A
8:20 PM59 °FScattered clouds.7 mph88%30.01 "HgN/A
7:50 PM59 °FScattered clouds.8 mph88%30.01 "HgN/A
7:20 PM59 °FScattered clouds.7 mph88%30.01 "HgN/A
6:20 PM61 °FLight rain. Scattered clouds.7 mph88%30.01 "Hg3 mi
5:50 PM64 °FPassing clouds.7 mph78%30.01 "HgN/A
5:20 PM64 °FPassing clouds.10 mph73%30.01 "HgN/A
4:50 PM64 °FPassing clouds.12 mph78%30.01 "HgN/A
4:20 PM66 °FPassing clouds.12 mph73%30.01 "HgN/A
3:50 PM70 °FPassing clouds.14 mph64%30.04 "HgN/A
3:20 PM70 °FScattered clouds.8 mph57%30.04 "HgN/A
2:50 PM70 °FScattered clouds.6 mph60%30.07 "HgN/A
2:20 PM70 °FPassing clouds.5 mph60%30.07 "HgN/A
1:50 PM70 °FPassing clouds.8 mph64%30.07 "HgN/A
1:20 PM70 °FPassing clouds.6 mph60%30.07 "HgN/A
12:50 PM68 °FPassing clouds.6 mph64%30.09 "HgN/A
12:20 PM68 °FPassing clouds.6 mph64%30.09 "HgN/A
11:50 AM66 °FPassing clouds.6 mph73%30.12 "HgN/A
11:20 AM66 °FPassing clouds.3 mph73%30.12 "HgN/A
10:50 AM64 °FPassing clouds.5 mph73%30.12 "HgN/A
10:20 AM63 °FPassing clouds.5 mph83%30.12 "HgN/A
9:50 AM61 °FPassing clouds.3 mph83%30.12 "HgN/A
9:20 AM61 °FSunny.3 mph83%30.12 "Hg10 mi
Weather by CustomWeather, © 2016

See weather overviewHow to use our weather pages